Flag for Canada Weather past 2 weeks in Saskatoon, Saskatchewan, Canada

Now
45 °F

Sunny.


Feels Like: 40 °F
Forecast: 40 / 74 °F
Wind: 9 mph from Southwest

Location: Saskatoon Weather Station

Current Time: Sep 21, 2014 at 8:40:57 AM

Latest Report: Sep 21, 2014 at 8:00 AM


Visibility: 15 mi

Pressure: 30.23 "Hg

Humidity: 81%

Dew point: 39 °F

Location of SaskatoonLocation

Historic Weather in Saskatoon — Graph

°F

Saskatoon temperature yesterday

Maximum temperature yesterday: 70 °F (at 3:00 PM)
Minimum temperature yesterday: 45 °F (at 7:00 AM)
Average temperature yesterday: 57 °F

Past Weeks' High & Low Weather Summary

 TemperatureHumidityPressure
High82 °F (Sep 7, 3:00 PM)100% (Sep 8, 1:49 AM)30.65 "Hg (Sep 8, 1:49 AM)
Low28 °F (Sep 12, 4:00 AM)26% (Sep 7, 4:00 PM)29.49 "Hg (Sep 18, 3:00 PM)
Average50 °F70%30.08 "Hg
* Reported Sep 6 8:00 AM — Sep 21 8:00 AM, Saskatoon, Weather by CustomWeather, © 2014

Note: Actual official high and low records may vary slightly from our data, if they occured in-between our weather recording intervals... More about our weather records

Advertising

Saskatoon weather history for previous 24 hours

 ConditionsComfort  
Time TempWeatherWind HumidityBarometerVisibility
8:00 AM
Sep 21
45 °FSunny.9 mph81%30.23 "Hg15 mi
7:00 AM39 °FSunny.6 mph93%30.23 "Hg15 mi
6:00 AM36 °FClear.6 mph93%30.22 "Hg15 mi
5:00 AM39 °FClear.6 mph87%30.22 "Hg15 mi
4:00 AM39 °FClear.6 mph87%30.21 "Hg15 mi
3:00 AM41 °FClear.5 mph87%30.21 "Hg15 mi
2:00 AM39 °FClear.7 mph87%30.21 "Hg15 mi
1:00 AM43 °FClear.8 mph81%30.20 "Hg15 mi
12:00 AM43 °FClear.5 mph81%30.20 "Hg15 mi
11:00 PM
Sep 20
45 °FClear.5 mph76%30.19 "Hg15 mi
10:00 PM46 °FClear.6 mph71%30.17 "Hg15 mi
9:00 PM50 °FClear.8 mph62%30.15 "Hg15 mi
8:00 PM54 °FPassing clouds.5 mph54%30.14 "Hg15 mi
7:00 PM61 °FPassing clouds.8 mph42%30.11 "Hg15 mi
6:00 PM68 °FScattered clouds.22 mph30%30.09 "Hg15 mi
5:00 PM70 °FScattered clouds.22 mph31%30.07 "Hg15 mi
4:00 PM70 °FPassing clouds.25 mph29%30.05 "Hg15 mi
3:00 PM70 °FPassing clouds.24 mph29%30.04 "Hg15 mi
2:00 PM68 °FPassing clouds.24 mph33%30.03 "Hg15 mi
1:00 PM66 °FPassing clouds.26 mph37%30.03 "Hg15 mi
12:00 PM64 °FPassing clouds.22 mph40%30.02 "Hg15 mi
11:00 AM63 °FMild.12 mph42%30.00 "HgN/A
Weather by CustomWeather, © 2014

See weather overviewHow to use our weather pages